Regional Weather Roundup
Issued by NWS

Home | Current Version | Previous Version | Graphics & Text | Print | Product List | Glossary On
Versions: 1 2 3 4 5 6 7 8 9 10 11 12 13 14 15 16 17 18 19 20 21 22 23 24 25 26 27 28 29 30 31 32 33 34 35 36 37 38 39 40 41 42 43 44 45 46 47 48 49 50
000
ASUS45 KSLC 211810
RWRUT

UTAH REGIONAL WEATHER ROUNDUP
NATIONAL WEATHER SERVICE SALT LAKE CITY UT
1200 PM MDT THU AUG 21 2014

UTZ001>011-023>025-211900-

NORTHERN UTAH

CITY           SKY/WX    TMP DP  RH WIND       PRES   REMARKS
HILL AFB       CLOUDY    66  55  68 N7        30.16R
LOGAN          PTSUNNY   65  55  70 SW9       30.13R
OGDEN          LGT RAIN  67  54  63 NE8       30.14R
PROVO AIRPORT  PTSUNNY   72  48  43 E3        30.15S
SALT LAKE CITY PTSUNNY   74  55  51 N10       30.10R
VERNAL         MOSUNNY   71  53  52 SE7       30.17F
WENDOVER       MOSUNNY   73  48  40 E8        30.08S
HEBER CITY     CLOUDY    70  50  49 W5        30.19S
WEST JORDAN    CLOUDY    75  54  46 SE12      30.13S

$$

UTZ012>022-026-027-211900-

SOUTHERN UTAH

CITY           SKY/WX    TMP DP  RH WIND       PRES   REMARKS
BRYCE CANYON   CLOUDY    65  42  43 SW7       30.33S
CEDAR CITY     MOSUNNY   75  42  30 CALM      30.18F
MILFORD        SUNNY     77  47  34 S16       30.15S
MOAB/CYNLANDS  SUNNY     75  50  41 CALM      30.12S
PRICE          MOSUNNY   72  45  37 VRB6      30.20F
ST GEORGE      CLOUDY    81  54  39 CALM      30.06F
KANAB            N/A     72  48  43 CALM      30.21F

$$

REGIONAL REPORTS     COLORADO/ARIZONA

CITY           SKY/WX    TMP DP  RH WIND       PRES   REMARKS
CRAIG, CO        N/A     72  47  40 W12G17    30.21F
GRAND JUNCTION CLOUDY    73  47  39 CALM      30.15S
RIFLE          PTSUNNY   73  43  33 W9        30.18F
MONTROSE       PTSUNNY   76  45  33 N8        30.21F
CORTEZ         SUNNY     79  38  22 VRB5      30.21S
PAGE, AZ       CLOUDY    80  44  27 N5        30.13F
GRAND CANYON   CLOUDY    66  46  48 CALM      30.30
KINGMAN        TSTM      66  55  67 NE14G24   30.11R
FLAGSTAFF      CLOUDY    67  45  45 NE7       30.31S

$$

REGIONAL REPORTS    NEVADA/IDAHO/WYOMING

CITY           SKY/WX    TMP DP  RH WIND       PRES   REMARKS
LAS VEGAS, NV  MOSUNNY   90  44  20 CALM      29.94F
ELY            MOSUNNY   73  38  27 VRB7      30.19F
ELKO           MOSUNNY   78  35  21 VRB7      30.07F
POCATELLO, ID  PTSUNNY   69  53  56 VRB6      30.10S
BURLEY         PTSUNNY   69  56  62 SW9       30.07R
EVANSTON, WY   PTSUNNY   65  45  48 SW18      30.24S
ROCK SPRINGS   PTSUNNY   69  41  36 W14       30.21F

$$


USA.gov is the U.S. government's official web portal to all federal, state and local government web resources and services.